Tracking 18852 objects as of 23-Nov-2017
HD Live streaming from Space Station
objects crossing your sky now

OV1-19

Track OV1-19 now!
10-day predictions
OV1-19 is classified as:


NORAD ID: 3825
Int'l Code: 1969-025C
Perigee: 484.8 km
Apogee: 5,531.5 km
Inclination: 104.8 °
Period: 150.7 minutes
Semi major axis: 9379 km
RCS: 0.6895 m2 (medium)
Launch date: March 18, 1969
Source: United States (US)
Launch site: AIR FORCE WESTERN TEST RANGE (AFWTR)
aabbcc
Your satellite tracking list
Your tracking list is empty




NASA's NSSDC Master Catalog

Two Line Element Set (TLE):
1 03825U 69025C   17327.22264684  .00000062  00000-0  50845-4 0  9998
2 03825 104.7660  55.6339 2690415 349.2903   6.0204  9.55781831684784
Source of the keplerian elements: AFSPC